Location: Poughquag
(41.6090°N, 73.6820°W)
Time: 11:30:03
(UTC-05:00)

ISS - Pass Details

Date: 21 January 2020
Orbit: 415 x 422 km, 51.6° (Epoch: 26 February)

Event Time Altitude Azimuth Distance (km) Brightness Sun altitude
Rises 19:16:56 0° 254° (WSW) 2,371 1.3 -26.1°
Reaches altitude 10° 19:19:07 10° 262° (W) 1,507 0.1 -26.5°
Enters shadow 19:20:54 25° 282° (WNW) 894 -1.5 -26.8°
